Time,TemperatureF,DewpointF,PressureIn,WindDirection,WindDirectionDegrees,WindSpeedMPH,WindSpeedGustMPH,Humidity,HourlyPrecipIn,Conditions,Clouds,dailyrainin,SoftwareType,DateUTC
2013-05-08 00:01:00,58.8,52.0,30.09,ESE,113,0.4,3.6,78,0.00,,,0.00,WUHU216HW,2013-05-08 04:01:00,
2013-05-08 00:02:00,58.8,52.0,30.09,SE,135,0.9,3.6,78,0.00,,,0.00,WUHU216HW,2013-05-08 04:02:00,
2013-05-08 00:07:00,58.8,52.0,30.08,SE,135,1.6,2.9,78,0.00,,,0.00,WUHU216HW,2013-05-08 04:07:00,
2013-05-08 00:13:00,58.8,52.4,30.08,SSE,158,1.6,2.7,79,0.00,,,0.00,WUHU216HW,2013-05-08 04:13:00,
2013-05-08 00:18:00,58.7,52.3,30.08,SE,135,0.4,2.2,79,0.00,,,0.00,WUHU216HW,2013-05-08 04:18:00,
2013-05-08 00:23:00,58.7,52.3,30.08,SE,135,3.1,3.1,79,0.00,,,0.00,WUHU216HW,2013-05-08 04:23:00,
2013-05-08 00:28:00,58.7,52.3,30.08,SW,225,1.1,3.1,79,0.00,,,0.00,WUHU216HW,2013-05-08 04:28:00,
2013-05-08 00:33:00,58.7,52.3,30.08,SE,135,0.9,3.4,79,0.00,,,0.00,WUHU216HW,2013-05-08 04:33:00,
2013-05-08 00:38:00,58.7,52.3,30.07,East,90,0.4,3.4,79,0.00,,,0.00,WUHU216HW,2013-05-08 04:38:00,
2013-05-08 00:43:00,58.5,52.1,30.07,ENE,68,1.1,2.5,79,0.00,,,0.00,WUHU216HW,2013-05-08 04:43:00,
2013-05-08 00:48:00,58.7,52.3,30.07,SE,135,0.4,2.5,79,0.00,,,0.00,WUHU216HW,2013-05-08 04:48:00,
2013-05-08 00:53:00,58.5,52.1,30.07,WSW,248,0.0,2.2,79,0.00,,,0.00,WUHU216HW,2013-05-08 04:53:00,
2013-05-08 00:58:00,58.5,52.1,30.07,ESE,113,0.2,2.2,79,0.00,,,0.00,WUHU216HW,2013-05-08 04:58:00,
2013-05-08 01:04:00,58.5,52.1,30.07,SE,135,0.4,2.0,79,0.00,,,0.00,WUHU216HW,2013-05-08 05:04:00,
2013-05-08 01:09:00,58.5,52.1,30.07,SE,135,0.4,2.0,79,0.00,,,0.00,WUHU216HW,2013-05-08 05:09:00,
2013-05-08 01:14:00,58.3,51.9,30.07,ESE,113,1.8,4.5,79,0.00,,,0.00,WUHU216HW,2013-05-08 05:14:00,
2013-05-08 01:19:00,58.3,51.9,30.07,SSE,158,1.1,4.5,79,0.00,,,0.00,WUHU216HW,2013-05-08 05:19:00,
2013-05-08 01:24:00,58.3,51.9,30.07,SE,135,1.3,2.0,79,0.00,,,0.00,WUHU216HW,2013-05-08 05:24:00,
2013-05-08 01:29:00,58.3,51.9,30.07,SE,135,1.6,3.4,79,0.00,,,0.00,WUHU216HW,2013-05-08 05:29:00,
2013-05-08 01:34:00,58.3,51.9,30.07,ESE,113,0.0,3.4,79,0.00,,,0.00,WUHU216HW,2013-05-08 05:34:00,
2013-05-08 01:39:00,58.3,52.2,30.06,SE,135,0.4,2.9,80,0.00,,,0.00,WUHU216HW,2013-05-08 05:39:00,
2013-05-08 01:44:00,58.3,52.2,30.06,ESE,113,0.7,2.9,80,0.00,,,0.00,WUHU216HW,2013-05-08 05:44:00,
2013-05-08 01:50:00,58.3,52.2,30.06,East,90,1.3,3.4,80,0.00,,,0.00,WUHU216HW,2013-05-08 05:50:00,
2013-05-08 01:55:00,58.3,52.2,30.06,ESE,113,0.4,3.4,80,0.00,,,0.00,WUHU216HW,2013-05-08 05:55:00,
2013-05-08 02:00:00,58.3,52.2,30.05,South,180,0.2,1.3,80,0.00,,,0.00,WUHU216HW,2013-05-08 06:00:00,
2013-05-08 02:05:00,58.1,52.0,30.05,SE,135,1.1,1.8,80,0.00,,,0.00,WUHU216HW,2013-05-08 06:05:00,
2013-05-08 02:10:00,58.1,52.0,30.05,SSE,158,0.4,3.1,80,0.00,,,0.00,WUHU216HW,2013-05-08 06:10:00,
2013-05-08 02:15:00,58.1,52.0,30.05,SE,135,1.6,3.1,80,0.00,,,0.00,WUHU216HW,2013-05-08 06:15:00,
2013-05-08 02:20:00,58.1,52.3,30.06,SSE,158,1.8,2.2,81,0.00,,,0.00,WUHU216HW,2013-05-08 06:20:00,
2013-05-08 02:25:00,57.9,52.1,30.06,SE,135,2.5,3.4,81,0.02,,,0.02,WUHU216HW,2013-05-08 06:25:00,
2013-05-08 02:30:00,57.9,52.1,30.05,WSW,248,0.2,3.4,81,0.02,,,0.02,WUHU216HW,2013-05-08 06:30:00,
2013-05-08 02:36:00,57.8,52.0,30.05,NE,45,0.4,1.8,81,0.02,,,0.02,WUHU216HW,2013-05-08 06:36:00,
2013-05-08 02:41:00,57.8,52.0,30.04,ENE,68,0.7,1.8,81,0.02,,,0.02,WUHU216HW,2013-05-08 06:41:00,
2013-05-08 02:46:00,57.6,51.9,30.04,ESE,113,1.1,1.8,81,0.02,,,0.02,WUHU216HW,2013-05-08 06:46:00,
2013-05-08 02:51:00,57.6,51.9,30.03,SE,135,1.1,2.2,81,0.02,,,0.02,WUHU216HW,2013-05-08 06:51:00,
2013-05-08 02:56:00,57.4,52.0,30.03,SSE,158,1.8,2.2,82,0.02,,,0.02,WUHU216HW,2013-05-08 06:56:00,
2013-05-08 03:01:00,57.4,52.0,30.03,SSE,158,2.5,2.5,82,0.02,,,0.02,WUHU216HW,2013-05-08 07:01:00,
2013-05-08 03:06:00,57.2,51.8,30.04,SSE,158,1.1,2.5,82,0.02,,,0.02,WUHU216HW,2013-05-08 07:06:00,
2013-05-08 03:11:00,57.4,52.0,30.04,SSE,158,1.1,2.5,82,0.02,,,0.02,WUHU216HW,2013-05-08 07:11:00,
2013-05-08 03:16:00,57.2,51.8,30.04,SE,135,0.0,1.8,82,0.02,,,0.02,WUHU216HW,2013-05-08 07:16:00,
2013-05-08 03:21:00,57.2,52.1,30.04,SE,135,0.4,1.8,83,0.00,,,0.02,WUHU216HW,2013-05-08 07:21:00,
2013-05-08 03:27:00,57.4,52.3,30.04,ESE,113,0.0,1.8,83,0.00,,,0.02,WUHU216HW,2013-05-08 07:27:00,
2013-05-08 03:32:00,57.2,52.1,30.04,SE,135,1.1,1.8,83,0.00,,,0.02,WUHU216HW,2013-05-08 07:32:00,
2013-05-08 03:37:00,57.2,52.1,30.04,ESE,113,0.4,1.8,83,0.00,,,0.02,WUHU216HW,2013-05-08 07:37:00,
2013-05-08 03:42:00,57.0,51.9,30.04,ESE,113,0.9,1.8,83,0.00,,,0.02,WUHU216HW,2013-05-08 07:42:00,
2013-05-08 03:47:00,57.0,51.9,30.04,SE,135,0.4,1.8,83,0.00,,,0.02,WUHU216HW,2013-05-08 07:47:00,
2013-05-08 03:52:00,57.0,51.9,30.04,ENE,68,1.1,1.6,83,0.00,,,0.02,WUHU216HW,2013-05-08 07:52:00,
2013-05-08 03:57:00,57.0,51.9,30.04,SE,135,0.4,1.1,83,0.00,,,0.02,WUHU216HW,2013-05-08 07:57:00,
2013-05-08 04:02:00,57.0,51.9,30.04,North,0,1.1,3.4,83,0.00,,,0.02,WUHU216HW,2013-05-08 08:02:00,
2013-05-08 04:07:00,57.0,51.9,30.04,ESE,113,0.0,3.4,83,0.00,,,0.02,WUHU216HW,2013-05-08 08:07:00,
2013-05-08 04:13:00,57.0,51.9,30.03,ESE,113,0.0,3.4,83,0.00,,,0.02,WUHU216HW,2013-05-08 08:13:00,
2013-05-08 04:18:00,57.0,51.9,30.03,ENE,68,0.7,3.4,83,0.00,,,0.02,WUHU216HW,2013-05-08 08:18:00,
2013-05-08 04:23:00,56.9,51.8,30.03,NE,45,0.2,2.5,83,0.00,,,0.02,WUHU216HW,2013-05-08 08:23:00,
2013-05-08 04:28:00,56.9,52.1,30.03,SSE,158,1.1,2.5,84,0.00,,,0.02,WUHU216HW,2013-05-08 08:28:00,
2013-05-08 04:33:00,56.9,52.1,30.03,SE,135,3.4,4.0,84,0.00,,,0.02,WUHU216HW,2013-05-08 08:33:00,
2013-05-08 04:38:00,56.9,52.1,30.03,SE,135,1.1,4.0,84,0.00,,,0.02,WUHU216HW,2013-05-08 08:38:00,
2013-05-08 04:43:00,56.7,51.9,30.03,East,90,2.5,4.9,84,0.00,,,0.02,WUHU216HW,2013-05-08 08:43:00,
2013-05-08 04:48:00,56.7,51.9,30.02,SE,135,1.8,6.9,84,0.00,,,0.02,WUHU216HW,2013-05-08 08:48:00,
2013-05-08 04:54:00,56.7,51.9,30.02,SE,135,1.8,6.9,84,0.00,,,0.02,WUHU216HW,2013-05-08 08:54:00,
2013-05-08 04:59:00,56.7,51.9,30.02,East,90,1.8,3.1,84,0.00,,,0.02,WUHU216HW,2013-05-08 08:59:00,
2013-05-08 05:04:00,56.7,52.2,30.02,East,90,1.1,3.8,85,0.00,,,0.02,WUHU216HW,2013-05-08 09:04:00,
2013-05-08 05:09:00,56.7,52.2,30.02,NNW,338,1.3,3.8,85,0.00,,,0.02,WUHU216HW,2013-05-08 09:09:00,
2013-05-08 05:14:00,56.7,52.2,30.02,SE,135,1.1,2.9,85,0.00,,,0.02,WUHU216HW,2013-05-08 09:14:00,
2013-05-08 05:19:00,56.7,52.2,30.02,SE,135,1.1,2.7,85,0.00,,,0.02,WUHU216HW,2013-05-08 09:19:00,
2013-05-08 05:24:00,56.7,52.2,30.02,SE,135,2.7,2.7,85,0.00,,,0.02,WUHU216HW,2013-05-08 09:24:00,
2013-05-08 05:29:00,56.7,52.2,30.02,South,180,1.3,3.8,85,0.00,,,0.02,WUHU216HW,2013-05-08 09:29:00,
2013-05-08 05:35:00,56.7,52.2,30.02,South,180,1.1,5.6,85,0.00,,,0.02,WUHU216HW,2013-05-08 09:35:00,
2013-05-08 05:40:00,56.7,52.2,30.02,SE,135,0.4,5.6,85,0.00,,,0.02,WUHU216HW,2013-05-08 09:40:00,
2013-05-08 05:45:00,56.7,52.2,30.02,SE,135,2.2,3.1,85,0.00,,,0.02,WUHU216HW,2013-05-08 09:45:00,
2013-05-08 05:50:00,56.7,52.2,30.02,SE,135,0.4,2.9,85,0.00,,,0.02,WUHU216HW,2013-05-08 09:50:00,
2013-05-08 05:55:00,56.7,52.2,30.02,East,90,0.4,3.1,85,0.00,,,0.02,WUHU216HW,2013-05-08 09:55:00,
2013-05-08 06:00:00,56.7,52.2,30.02,ESE,113,0.9,4.3,85,0.00,,,0.02,WUHU216HW,2013-05-08 10:00:00,
2013-05-08 06:05:00,56.7,52.2,30.02,SE,135,2.5,4.3,85,0.00,,,0.02,WUHU216HW,2013-05-08 10:05:00,
2013-05-08 06:10:00,56.7,52.2,30.03,SE,135,1.8,2.7,85,0.00,,,0.02,WUHU216HW,2013-05-08 10:10:00,
2013-05-08 06:15:00,56.7,52.2,30.03,SSE,158,3.4,3.4,85,0.00,,,0.02,WUHU216HW,2013-05-08 10:15:00,
2013-05-08 06:21:00,56.7,52.2,30.03,SE,135,1.3,3.4,85,0.00,,,0.02,WUHU216HW,2013-05-08 10:21:00,
2013-05-08 06:26:00,56.7,52.2,30.04,SSE,158,5.4,5.4,85,0.00,,,0.02,WUHU216HW,2013-05-08 10:26:00,
2013-05-08 06:31:00,56.7,52.2,30.03,SE,135,2.9,5.4,85,0.00,,,0.02,WUHU216HW,2013-05-08 10:31:00,
2013-05-08 06:36:00,56.7,52.6,30.03,ESE,113,0.0,5.4,86,0.00,,,0.02,WUHU216HW,2013-05-08 10:36:00,
2013-05-08 06:41:00,56.7,52.6,30.03,ENE,68,2.5,3.4,86,0.00,,,0.02,WUHU216HW,2013-05-08 10:41:00,
2013-05-08 06:46:00,56.9,52.7,30.03,SSW,203,0.4,3.4,86,0.00,,,0.02,WUHU216HW,2013-05-08 10:46:00,
2013-05-08 06:51:00,56.9,52.7,30.04,ESE,113,0.4,2.0,86,0.00,,,0.02,WUHU216HW,2013-05-08 10:51:00,
2013-05-08 06:56:00,56.9,52.7,30.04,ESE,113,0.4,2.0,86,0.00,,,0.02,WUHU216HW,2013-05-08 10:56:00,
2013-05-08 07:01:00,56.9,52.7,30.03,SSE,158,0.4,2.0,86,0.00,,,0.02,WUHU216HW,2013-05-08 11:01:00,
2013-05-08 07:07:00,56.9,52.7,30.03,SE,135,1.6,3.4,86,0.00,,,0.02,WUHU216HW,2013-05-08 11:07:00,
2013-05-08 07:12:00,56.9,52.7,30.04,West,270,1.1,3.8,86,0.00,,,0.02,WUHU216HW,2013-05-08 11:12:00,
2013-05-08 07:17:00,56.7,52.6,30.03,SE,135,1.8,3.8,86,0.00,,,0.02,WUHU216HW,2013-05-08 11:17:00,
2013-05-08 07:22:00,56.7,52.6,30.03,SSW,203,1.6,3.1,86,0.00,,,0.02,WUHU216HW,2013-05-08 11:22:00,
2013-05-08 07:27:00,56.7,52.6,30.03,ENE,68,1.3,2.0,86,0.00,,,0.02,WUHU216HW,2013-05-08 11:27:00,
2013-05-08 07:32:00,56.7,52.6,30.02,SE,135,1.3,3.4,86,0.00,,,0.02,WUHU216HW,2013-05-08 11:32:00,
2013-05-08 07:37:00,56.7,52.6,30.03,SE,135,2.0,6.9,86,0.00,,,0.02,WUHU216HW,2013-05-08 11:37:00,
2013-05-08 07:42:00,56.7,52.6,30.03,SE,135,4.0,6.9,86,0.00,,,0.02,WUHU216HW,2013-05-08 11:42:00,
2013-05-08 07:48:00,56.7,52.6,30.03,SSE,158,3.4,7.6,86,0.00,,,0.02,WUHU216HW,2013-05-08 11:48:00,
2013-05-08 07:53:00,56.9,53.1,30.03,ESE,113,2.2,7.6,87,0.00,,,0.02,WUHU216HW,2013-05-08 11:53:00,
2013-05-08 07:58:00,56.9,52.7,30.03,ENE,68,2.2,4.3,86,0.00,,,0.02,WUHU216HW,2013-05-08 11:58:00,
2013-05-08 08:03:00,56.7,52.6,30.03,West,270,3.1,6.7,86,0.00,,,0.02,WUHU216HW,2013-05-08 12:03:00,
2013-05-08 08:08:00,56.7,52.6,30.04,East,90,3.4,6.7,86,0.00,,,0.02,WUHU216HW,2013-05-08 12:08:00,
2013-05-08 08:13:00,56.7,52.6,30.04,ESE,113,3.4,5.4,86,0.00,,,0.02,WUHU216HW,2013-05-08 12:13:00,
2013-05-08 08:18:00,56.7,52.9,30.05,ESE,113,2.7,5.6,87,0.00,,,0.02,WUHU216HW,2013-05-08 12:18:00,
2013-05-08 08:23:00,56.7,52.9,30.06,SE,135,2.9,8.1,87,0.00,,,0.02,WUHU216HW,2013-05-08 12:23:00,
2013-05-08 08:28:00,56.7,52.9,30.06,ESE,113,2.7,8.1,87,0.00,,,0.02,WUHU216HW,2013-05-08 12:28:00,
2013-05-08 08:33:00,56.7,52.9,30.06,ESE,113,0.9,3.8,87,0.00,,,0.02,WUHU216HW,2013-05-08 12:33:00,
2013-05-08 08:38:00,56.7,52.9,30.06,SSE,158,1.1,3.8,87,0.00,,,0.02,WUHU216HW,2013-05-08 12:38:00,
2013-05-08 08:43:00,56.5,52.7,30.06,NE,45,3.4,4.0,87,0.00,,,0.02,WUHU216HW,2013-05-08 12:43:00,
2013-05-08 08:48:00,56.5,52.7,30.06,NE,45,0.4,4.0,87,0.00,,,0.02,WUHU216HW,2013-05-08 12:48:00,
2013-05-08 08:53:00,56.5,52.7,30.05,East,90,0.2,4.5,87,0.00,,,0.02,WUHU216HW,2013-05-08 12:53:00,
2013-05-08 08:58:00,56.5,52.7,30.05,South,180,0.4,4.5,87,0.00,,,0.02,WUHU216HW,2013-05-08 12:58:00,
2013-05-08 09:03:00,56.5,52.7,30.04,SE,135,2.2,3.4,87,0.00,,,0.02,WUHU216HW,2013-05-08 13:03:00,
2013-05-08 09:08:00,56.5,52.7,30.03,ESE,113,0.9,2.2,87,0.00,,,0.02,WUHU216HW,2013-05-08 13:08:00,
2013-05-08 09:13:00,56.7,52.9,30.03,South,180,1.1,2.2,87,0.00,,,0.02,WUHU216HW,2013-05-08 13:13:00,
2013-05-08 09:18:00,56.7,52.9,30.03,SSW,203,0.4,2.0,87,0.00,,,0.02,WUHU216HW,2013-05-08 13:18:00,
2013-05-08 09:23:00,56.9,53.1,30.02,ESE,113,0.9,2.0,87,0.00,,,0.02,WUHU216HW,2013-05-08 13:23:00,
2013-05-08 09:28:00,57.0,53.2,30.03,SE,135,0.9,2.0,87,0.00,,,0.02,WUHU216HW,2013-05-08 13:28:00,
2013-05-08 09:33:00,57.0,53.2,30.03,ESE,113,1.1,3.4,87,0.00,,,0.02,WUHU216HW,2013-05-08 13:33:00,
2013-05-08 09:38:00,57.0,53.2,30.03,ESE,113,0.9,3.4,87,0.00,,,0.02,WUHU216HW,2013-05-08 13:38:00,
2013-05-08 09:43:00,57.2,53.4,30.04,SE,135,3.1,3.1,87,0.00,,,0.02,WUHU216HW,2013-05-08 13:43:00,
2013-05-08 09:48:00,57.2,53.4,30.03,NNE,23,1.1,3.1,87,0.00,,,0.02,WUHU216HW,2013-05-08 13:48:00,
2013-05-08 09:54:00,56.9,53.1,30.03,SE,135,3.8,3.8,87,0.00,,,0.02,WUHU216HW,2013-05-08 13:54:00,
2013-05-08 09:59:00,56.9,53.1,30.03,SE,135,1.1,3.8,87,0.00,,,0.02,WUHU216HW,2013-05-08 13:59:00,
2013-05-08 10:04:00,57.0,53.2,30.03,ESE,113,0.9,3.8,87,0.00,,,0.02,WUHU216HW,2013-05-08 14:04:00,
2013-05-08 10:09:00,57.2,53.4,30.03,NNW,338,1.3,1.8,87,0.00,,,0.02,WUHU216HW,2013-05-08 14:09:00,
2013-05-08 10:14:00,57.4,53.5,30.03,ENE,68,0.9,1.8,87,0.00,,,0.02,WUHU216HW,2013-05-08 14:14:00,
2013-05-08 10:19:00,57.6,53.7,30.03,NNW,338,0.9,3.6,87,0.00,,,0.02,WUHU216HW,2013-05-08 14:19:00,
2013-05-08 10:24:00,57.8,53.9,30.03,NNE,23,0.7,3.8,87,0.00,,,0.02,WUHU216HW,2013-05-08 14:24:00,
2013-05-08 10:29:00,58.1,54.2,30.04,ENE,68,0.4,3.8,87,0.00,,,0.02,WUHU216HW,2013-05-08 14:29:00,
2013-05-08 10:34:00,58.5,54.6,30.04,NE,45,1.1,3.8,87,0.00,,,0.02,WUHU216HW,2013-05-08 14:34:00,
2013-05-08 10:39:00,59.0,55.1,30.04,ENE,68,1.8,3.4,87,0.00,,,0.02,WUHU216HW,2013-05-08 14:39:00,
2013-05-08 10:44:00,59.2,55.3,30.04,WNW,293,1.3,4.3,87,0.00,,,0.02,WUHU216HW,2013-05-08 14:44:00,
2013-05-08 10:50:00,59.6,55.7,30.03,NE,45,0.7,4.3,87,0.00,,,0.02,WUHU216HW,2013-05-08 14:50:00,
2013-05-08 10:55:00,59.9,55.7,30.04,ESE,113,0.4,1.8,86,0.00,,,0.02,WUHU216HW,2013-05-08 14:55:00,
2013-05-08 11:00:00,60.1,55.9,30.04,SE,135,1.1,1.8,86,0.00,,,0.02,WUHU216HW,2013-05-08 15:00:00,
2013-05-08 11:05:00,60.3,56.1,30.03,ESE,113,0.7,2.5,86,0.00,,,0.02,WUHU216HW,2013-05-08 15:05:00,
2013-05-08 11:10:00,60.5,56.0,30.03,South,180,1.1,2.5,85,0.00,,,0.02,WUHU216HW,2013-05-08 15:10:00,
2013-05-08 11:15:00,60.6,56.1,30.03,SE,135,1.8,2.9,85,0.00,,,0.02,WUHU216HW,2013-05-08 15:15:00,
2013-05-08 11:20:00,60.6,56.1,30.03,South,180,1.8,4.0,85,0.00,,,0.02,WUHU216HW,2013-05-08 15:20:00,
2013-05-08 11:25:00,60.8,56.0,30.03,SSE,158,0.7,4.0,84,0.00,,,0.02,WUHU216HW,2013-05-08 15:25:00,
2013-05-08 11:30:00,60.8,56.0,30.03,SE,135,1.6,3.6,84,0.00,,,0.02,WUHU216HW,2013-05-08 15:30:00,
2013-05-08 11:35:00,60.8,56.0,30.03,SE,135,3.4,3.4,84,0.00,,,0.02,WUHU216HW,2013-05-08 15:35:00,
2013-05-08 11:40:00,60.8,55.6,30.03,SSE,158,0.4,3.4,83,0.00,,,0.02,WUHU216HW,2013-05-08 15:40:00,
2013-05-08 11:45:00,60.8,55.6,30.03,ESE,113,1.1,3.4,83,0.00,,,0.02,WUHU216HW,2013-05-08 15:45:00,
2013-05-08 11:51:00,60.8,55.6,30.04,SE,135,0.7,2.7,83,0.00,,,0.02,WUHU216HW,2013-05-08 15:51:00,
2013-05-08 11:56:00,60.8,55.6,30.03,SSE,158,1.8,2.2,83,0.00,,,0.02,WUHU216HW,2013-05-08 15:56:00,
2013-05-08 12:01:00,60.8,55.3,30.02,South,180,1.8,2.2,82,0.00,,,0.02,WUHU216HW,2013-05-08 16:01:00,
2013-05-08 12:06:00,60.6,55.1,30.03,ESE,113,1.1,2.9,82,0.00,,,0.02,WUHU216HW,2013-05-08 16:06:00,
2013-05-08 12:11:00,60.5,55.0,30.02,West,270,0.4,3.4,82,0.00,,,0.02,WUHU216HW,2013-05-08 16:11:00,
2013-05-08 12:16:00,60.3,54.8,30.02,East,90,0.2,3.4,82,0.00,,,0.02,WUHU216HW,2013-05-08 16:16:00,
2013-05-08 12:21:00,60.1,54.6,30.01,North,0,0.7,1.8,82,0.00,,,0.02,WUHU216HW,2013-05-08 16:21:00,
2013-05-08 12:26:00,60.1,54.6,30.01,North,0,0.0,1.8,82,0.00,,,0.02,WUHU216HW,2013-05-08 16:26:00,
2013-05-08 12:31:00,59.9,54.4,30.01,SSE,158,0.0,1.1,82,0.00,,,0.02,WUHU216HW,2013-05-08 16:31:00,
2013-05-08 12:36:00,59.9,54.8,30.01,SSE,158,1.1,1.8,83,0.00,,,0.02,WUHU216HW,2013-05-08 16:36:00,
2013-05-08 12:42:00,59.7,54.6,30.01,WSW,248,1.1,1.8,83,0.00,,,0.02,WUHU216HW,2013-05-08 16:42:00,
2013-05-08 12:47:00,59.7,54.6,30.00,WNW,293,0.4,1.8,83,0.00,,,0.02,WUHU216HW,2013-05-08 16:47:00,
2013-05-08 12:52:00,59.6,54.5,29.99,NW,315,0.2,1.8,83,0.00,,,0.02,WUHU216HW,2013-05-08 16:52:00,
2013-05-08 12:57:00,59.6,54.5,29.99,SW,225,1.8,1.8,83,0.00,,,0.02,WUHU216HW,2013-05-08 16:57:00,
2013-05-08 13:02:00,59.4,54.3,30.00,West,270,1.1,1.8,83,0.30,,,0.33,WUHU216HW,2013-05-08 17:02:00,
2013-05-08 13:07:00,59.2,54.1,29.99,North,0,1.8,2.2,83,0.33,,,0.35,WUHU216HW,2013-05-08 17:07:00,
2013-05-08 13:12:00,59.0,54.2,30.00,SSE,158,0.0,2.2,84,0.37,,,0.39,WUHU216HW,2013-05-08 17:12:00,
2013-05-08 13:17:00,58.8,54.0,29.99,NNW,338,0.7,1.1,84,0.39,,,0.41,WUHU216HW,2013-05-08 17:17:00,
2013-05-08 13:22:00,58.8,54.0,29.99,East,90,0.0,1.1,84,0.39,,,0.41,WUHU216HW,2013-05-08 17:22:00,
2013-05-08 13:27:00,58.8,54.0,30.00,ESE,113,0.7,1.1,84,0.39,,,0.41,WUHU216HW,2013-05-08 17:27:00,
2013-05-08 13:32:00,58.7,53.9,30.00,WSW,248,0.7,1.1,84,0.41,,,0.43,WUHU216HW,2013-05-08 17:32:00,
2013-05-08 13:37:00,58.7,54.2,30.00,West,270,1.1,1.1,85,0.45,,,0.47,WUHU216HW,2013-05-08 17:37:00,
2013-05-08 13:42:00,58.7,54.2,29.99,WSW,248,0.0,1.3,85,0.45,,,0.47,WUHU216HW,2013-05-08 17:42:00,
2013-05-08 13:48:00,58.7,54.2,29.99,NW,315,1.8,1.8,85,0.45,,,0.47,WUHU216HW,2013-05-08 17:48:00,
2013-05-08 13:53:00,58.7,54.2,29.99,NNW,338,0.0,1.8,85,0.45,,,0.47,WUHU216HW,2013-05-08 17:53:00,
2013-05-08 13:58:00,58.8,54.3,29.99,NNE,23,0.9,1.8,85,0.20,,,0.47,WUHU216HW,2013-05-08 17:58:00,
2013-05-08 14:03:00,58.8,54.3,29.99,NW,315,0.2,1.6,85,0.14,,,0.47,WUHU216HW,2013-05-08 18:03:00,
2013-05-08 14:08:00,58.8,54.3,29.99,NNW,338,0.9,1.6,85,0.10,,,0.47,WUHU216HW,2013-05-08 18:08:00,
2013-05-08 14:13:00,58.8,54.3,29.99,NW,315,0.9,1.1,85,0.08,,,0.47,WUHU216HW,2013-05-08 18:13:00,
2013-05-08 14:18:00,59.0,54.5,29.98,NW,315,0.0,1.3,85,0.06,,,0.47,WUHU216HW,2013-05-08 18:18:00,
2013-05-08 14:23:00,59.2,55.0,29.98,NW,315,0.0,1.3,86,0.06,,,0.47,WUHU216HW,2013-05-08 18:23:00,
2013-05-08 14:28:00,59.2,54.7,29.98,NW,315,1.8,1.8,85,0.04,,,0.47,WUHU216HW,2013-05-08 18:28:00,
2013-05-08 14:33:00,59.4,55.2,29.97,NW,315,0.2,1.8,86,0.02,,,0.47,WUHU216HW,2013-05-08 18:33:00,
2013-05-08 14:38:00,59.6,55.4,29.98,East,90,0.4,1.8,86,0.00,,,0.47,WUHU216HW,2013-05-08 18:38:00,
2013-05-08 14:43:00,59.6,55.4,29.97,West,270,0.0,1.3,86,0.00,,,0.47,WUHU216HW,2013-05-08 18:43:00,
2013-05-08 14:48:00,59.9,55.7,29.97,WSW,248,0.0,0.9,86,0.00,,,0.47,WUHU216HW,2013-05-08 18:48:00,
2013-05-08 14:53:00,59.9,55.7,29.97,SE,135,0.4,1.1,86,0.00,,,0.47,WUHU216HW,2013-05-08 18:53:00,
2013-05-08 14:58:00,60.1,55.9,29.97,ESE,113,0.4,1.1,86,0.00,,,0.47,WUHU216HW,2013-05-08 18:58:00,
2013-05-08 15:03:00,60.3,55.8,29.97,ESE,113,0.2,0.4,85,0.00,,,0.47,WUHU216HW,2013-05-08 19:03:00,
2013-05-08 15:08:00,60.3,56.1,29.97,South,180,0.7,0.7,86,0.00,,,0.47,WUHU216HW,2013-05-08 19:08:00,
2013-05-08 15:14:00,60.5,56.3,29.97,ENE,68,0.4,1.3,86,0.00,,,0.47,WUHU216HW,2013-05-08 19:14:00,
2013-05-08 15:19:00,60.8,56.6,29.97,West,270,0.2,1.3,86,0.00,,,0.47,WUHU216HW,2013-05-08 19:19:00,
2013-05-08 15:24:00,61.0,56.8,29.97,East,90,2.2,2.2,86,0.00,,,0.47,WUHU216HW,2013-05-08 19:24:00,
2013-05-08 15:29:00,61.2,57.0,29.97,SSE,158,0.7,2.2,86,0.00,,,0.47,WUHU216HW,2013-05-08 19:29:00,
2013-05-08 15:34:00,61.4,57.2,29.97,ENE,68,1.3,1.8,86,0.00,,,0.47,WUHU216HW,2013-05-08 19:34:00,
2013-05-08 15:39:00,61.4,57.2,29.96,SE,135,1.8,1.8,86,0.00,,,0.47,WUHU216HW,2013-05-08 19:39:00,
2013-05-08 15:44:00,61.7,57.2,29.96,ESE,113,2.2,3.1,85,0.00,,,0.47,WUHU216HW,2013-05-08 19:44:00,
2013-05-08 15:49:00,62.1,57.5,29.96,SE,135,1.6,3.4,85,0.00,,,0.47,WUHU216HW,2013-05-08 19:49:00,
2013-05-08 15:54:00,62.4,57.8,29.96,ESE,113,0.4,3.4,85,0.00,,,0.47,WUHU216HW,2013-05-08 19:54:00,
2013-05-08 15:59:00,62.4,57.8,29.96,NW,315,0.7,3.4,85,0.00,,,0.47,WUHU216HW,2013-05-08 19:59:00,
2013-05-08 16:04:00,62.4,57.8,29.95,East,90,1.8,2.9,85,0.00,,,0.47,WUHU216HW,2013-05-08 20:04:00,
2013-05-08 16:09:00,62.4,57.5,29.95,SE,135,2.5,2.5,84,0.00,,,0.47,WUHU216HW,2013-05-08 20:09:00,
2013-05-08 16:14:00,62.6,57.7,29.95,SSE,158,0.4,2.5,84,0.00,,,0.47,WUHU216HW,2013-05-08 20:14:00,
2013-05-08 16:19:00,62.8,58.2,29.95,SE,135,0.4,2.0,85,0.00,,,0.47,WUHU216HW,2013-05-08 20:19:00,
2013-05-08 16:24:00,62.8,58.2,29.96,SE,135,1.3,3.1,85,0.00,,,0.47,WUHU216HW,2013-05-08 20:24:00,
2013-05-08 16:29:00,63.2,58.3,29.95,South,180,0.7,3.1,84,0.00,,,0.47,WUHU216HW,2013-05-08 20:29:00,
2013-05-08 16:34:00,63.2,58.3,29.95,SE,135,1.6,2.9,84,0.00,,,0.47,WUHU216HW,2013-05-08 20:34:00,
2013-05-08 16:39:00,63.7,58.8,29.95,SE,135,2.7,3.1,84,0.00,,,0.47,WUHU216HW,2013-05-08 20:39:00,
2013-05-08 16:44:00,63.9,59.0,29.96,SE,135,2.2,3.8,84,0.00,,,0.47,WUHU216HW,2013-05-08 20:44:00,
2013-05-08 16:49:00,64.1,58.9,29.96,SE,135,1.8,3.8,83,0.00,,,0.47,WUHU216HW,2013-05-08 20:49:00,
2013-05-08 16:55:00,64.2,59.0,29.96,SE,135,1.1,3.4,83,0.00,,,0.47,WUHU216HW,2013-05-08 20:55:00,
2013-05-08 17:00:00,64.4,59.2,29.96,SE,135,2.2,2.5,83,0.00,,,0.47,WUHU216HW,2013-05-08 21:00:00,
2013-05-08 17:05:00,64.6,59.0,29.95,SE,135,1.1,2.5,82,0.00,,,0.47,WUHU216HW,2013-05-08 21:05:00,
2013-05-08 17:10:00,65.0,59.4,29.96,SE,135,2.0,3.8,82,0.00,,,0.47,WUHU216HW,2013-05-08 21:10:00,
2013-05-08 17:15:00,65.3,59.4,29.95,ESE,113,2.0,3.8,81,0.00,,,0.47,WUHU216HW,2013-05-08 21:15:00,
2013-05-08 17:20:00,65.7,59.8,29.95,SE,135,2.0,2.7,81,0.00,,,0.47,WUHU216HW,2013-05-08 21:20:00,
2013-05-08 17:25:00,66.2,59.9,29.95,NE,45,0.4,2.7,80,0.00,,,0.47,WUHU216HW,2013-05-08 21:25:00,
2013-05-08 17:30:00,66.4,59.8,29.95,SE,135,0.9,2.0,79,0.00,,,0.47,WUHU216HW,2013-05-08 21:30:00,
2013-05-08 17:35:00,66.4,59.4,29.95,SE,135,0.4,1.8,78,0.00,,,0.47,WUHU216HW,2013-05-08 21:35:00,
2013-05-08 17:40:00,66.8,59.8,29.95,ESE,113,1.8,2.0,78,0.00,,,0.47,WUHU216HW,2013-05-08 21:40:00,
2013-05-08 17:45:00,67.1,60.1,29.95,SSE,158,2.5,2.7,78,0.00,,,0.47,WUHU216HW,2013-05-08 21:45:00,
2013-05-08 17:50:00,67.5,60.1,29.95,ESE,113,0.7,3.4,77,0.00,,,0.47,WUHU216HW,2013-05-08 21:50:00,
2013-05-08 17:55:00,67.7,60.0,29.95,South,180,4.7,4.7,76,0.00,,,0.47,WUHU216HW,2013-05-08 21:55:00,
2013-05-08 18:00:00,67.3,59.6,29.95,South,180,0.4,4.7,76,0.00,,,0.47,WUHU216HW,2013-05-08 22:00:00,
2013-05-08 18:05:00,66.9,59.2,29.95,ESE,113,0.9,4.7,76,0.00,,,0.47,WUHU216HW,2013-05-08 22:05:00,
2013-05-08 18:10:00,67.3,59.9,29.95,ENE,68,0.2,1.1,77,0.00,,,0.47,WUHU216HW,2013-05-08 22:10:00,
2013-05-08 18:16:00,68.2,60.8,29.95,SSE,158,1.1,2.9,77,0.00,,,0.47,WUHU216HW,2013-05-08 22:16:00,
2013-05-08 18:21:00,68.9,61.1,29.95,SE,135,1.8,2.9,76,0.00,,,0.47,WUHU216HW,2013-05-08 22:21:00,
2013-05-08 18:26:00,68.9,60.8,29.95,SE,135,1.3,2.2,75,0.00,,,0.47,WUHU216HW,2013-05-08 22:26:00,
2013-05-08 18:31:00,68.6,60.1,29.95,SE,135,1.6,2.5,74,0.00,,,0.47,WUHU216HW,2013-05-08 22:31:00,
2013-05-08 18:36:00,68.9,60.4,29.94,ESE,113,1.3,2.9,74,0.00,,,0.47,WUHU216HW,2013-05-08 22:36:00,
2013-05-08 18:41:00,68.7,60.2,29.95,ENE,68,0.4,2.9,74,0.00,,,0.47,WUHU216HW,2013-05-08 22:41:00,
2013-05-08 18:46:00,68.2,59.4,29.95,South,180,0.9,2.2,73,0.00,,,0.47,WUHU216HW,2013-05-08 22:46:00,
2013-05-08 18:51:00,67.5,58.7,29.95,NE,45,1.1,3.4,73,0.00,,,0.47,WUHU216HW,2013-05-08 22:51:00,
2013-05-08 18:56:00,67.3,58.9,29.94,SW,225,1.1,3.4,74,0.00,,,0.47,WUHU216HW,2013-05-08 22:56:00,
2013-05-08 19:01:00,66.8,58.0,29.94,ESE,113,1.6,4.0,73,0.00,,,0.47,WUHU216HW,2013-05-08 23:01:00,
2013-05-08 19:06:00,66.4,58.0,29.95,SE,135,0.9,4.0,74,0.00,,,0.47,WUHU216HW,2013-05-08 23:06:00,
2013-05-08 19:11:00,65.9,57.5,29.95,NNE,23,2.2,3.4,74,0.00,,,0.47,WUHU216HW,2013-05-08 23:11:00,
2013-05-08 19:16:00,65.3,56.9,29.95,ESE,113,2.9,3.4,74,0.00,,,0.47,WUHU216HW,2013-05-08 23:16:00,
2013-05-08 19:21:00,64.8,56.8,29.95,West,270,2.0,3.4,75,0.00,,,0.47,WUHU216HW,2013-05-08 23:21:00,
2013-05-08 19:27:00,64.4,56.4,29.95,ESE,113,0.4,3.1,75,0.00,,,0.47,WUHU216HW,2013-05-08 23:27:00,
2013-05-08 19:32:00,64.1,56.5,29.96,SE,135,1.3,4.0,76,0.00,,,0.47,WUHU216HW,2013-05-08 23:32:00,
2013-05-08 19:37:00,63.5,55.9,29.95,South,180,1.3,4.0,76,0.00,,,0.47,WUHU216HW,2013-05-08 23:37:00,
2013-05-08 19:42:00,63.2,56.0,29.96,ESE,113,0.9,2.7,77,0.00,,,0.47,WUHU216HW,2013-05-08 23:42:00,
2013-05-08 19:47:00,63.0,55.8,29.96,SE,135,0.7,2.7,77,0.00,,,0.47,WUHU216HW,2013-05-08 23:47:00,
2013-05-08 19:52:00,62.6,55.4,29.96,SE,135,0.2,1.6,77,0.00,,,0.47,WUHU216HW,2013-05-08 23:52:00,
2013-05-08 19:57:00,62.4,55.2,29.97,ESE,113,0.0,2.0,77,0.00,,,0.47,WUHU216HW,2013-05-08 23:57:00,
2013-05-08 20:02:00,62.3,55.4,29.97,SE,135,2.0,2.7,78,0.00,,,0.47,WUHU216HW,2013-05-09 00:02:00,
2013-05-08 20:07:00,62.1,55.2,29.96,SSE,158,1.1,3.4,78,0.00,,,0.47,WUHU216HW,2013-05-09 00:07:00,
2013-05-08 20:12:00,61.7,54.9,29.96,SSE,158,1.1,3.4,78,0.00,,,0.47,WUHU216HW,2013-05-09 00:12:00,
2013-05-08 20:17:00,61.5,54.7,29.97,NNE,23,1.3,2.5,78,0.00,,,0.47,WUHU216HW,2013-05-09 00:17:00,
2013-05-08 20:22:00,61.2,54.0,29.97,East,90,0.7,5.4,77,0.00,,,0.47,WUHU216HW,2013-05-09 00:22:00,
2013-05-08 20:27:00,60.8,53.6,29.97,SE,135,1.3,5.4,77,0.00,,,0.47,WUHU216HW,2013-05-09 00:27:00,
2013-05-08 20:32:00,60.5,53.3,29.97,WSW,248,0.2,3.4,77,0.00,,,0.47,WUHU216HW,2013-05-09 00:32:00,
2013-05-08 20:37:00,60.3,53.5,29.98,SSE,158,1.8,2.5,78,0.00,,,0.47,WUHU216HW,2013-05-09 00:37:00,
2013-05-08 20:42:00,59.9,53.1,29.98,SSE,158,1.8,3.4,78,0.00,,,0.47,WUHU216HW,2013-05-09 00:42:00,
2013-05-08 20:47:00,59.7,52.9,29.98,SSE,158,1.8,4.3,78,0.00,,,0.47,WUHU216HW,2013-05-09 00:47:00,
2013-05-08 20:53:00,59.4,52.6,29.98,SSE,158,0.9,4.3,78,0.00,,,0.47,WUHU216HW,2013-05-09 00:53:00,
2013-05-08 20:58:00,59.2,52.4,29.99,SE,135,0.7,3.4,78,0.00,,,0.47,WUHU216HW,2013-05-09 00:58:00,
2013-05-08 21:03:00,58.8,52.0,29.99,SE,135,1.3,3.4,78,0.00,,,0.47,WUHU216HW,2013-05-09 01:03:00,
2013-05-08 21:08:00,58.7,51.9,29.99,East,90,0.2,2.5,78,0.00,,,0.47,WUHU216HW,2013-05-09 01:08:00,
2013-05-08 21:13:00,58.3,51.5,29.99,SE,135,0.4,2.5,78,0.00,,,0.47,WUHU216HW,2013-05-09 01:13:00,
2013-05-08 21:18:00,58.1,51.3,29.99,SSW,203,0.2,1.1,78,0.00,,,0.47,WUHU216HW,2013-05-09 01:18:00,
2013-05-08 21:23:00,57.9,51.2,29.99,SSE,158,0.0,1.1,78,0.00,,,0.47,WUHU216HW,2013-05-09 01:23:00,
2013-05-08 21:28:00,57.6,50.9,30.00,SW,225,0.2,1.6,78,0.00,,,0.47,WUHU216HW,2013-05-09 01:28:00,
2013-05-08 21:33:00,57.2,50.5,30.00,West,270,0.0,1.6,78,0.00,,,0.47,WUHU216HW,2013-05-09 01:33:00,
2013-05-08 21:38:00,56.9,50.2,30.00,WNW,293,0.0,0.9,78,0.00,,,0.47,WUHU216HW,2013-05-09 01:38:00,
2013-05-08 21:43:00,56.7,50.0,30.01,SW,225,0.0,0.9,78,0.00,,,0.47,WUHU216HW,2013-05-09 01:43:00,
2013-05-08 21:48:00,56.7,50.0,30.00,East,90,1.1,1.1,78,0.00,,,0.47,WUHU216HW,2013-05-09 01:48:00,
2013-05-08 21:53:00,56.5,49.8,30.00,SE,135,0.0,1.1,78,0.00,,,0.47,WUHU216HW,2013-05-09 01:53:00,
2013-05-08 21:59:00,56.3,49.6,30.00,ESE,113,0.4,1.1,78,0.00,,,0.47,WUHU216HW,2013-05-09 01:59:00,
2013-05-08 22:04:00,56.1,49.7,30.00,SE,135,0.0,1.1,79,0.00,,,0.47,WUHU216HW,2013-05-09 02:04:00,
2013-05-08 22:09:00,56.0,49.6,30.00,ENE,68,0.0,0.4,79,0.00,,,0.47,WUHU216HW,2013-05-09 02:09:00,
2013-05-08 22:14:00,55.8,49.4,30.00,ENE,68,0.0,0.4,79,0.00,,,0.47,WUHU216HW,2013-05-09 02:14:00,
2013-05-08 22:19:00,55.6,49.2,30.00,ENE,68,0.0,0.0,79,0.00,,,0.47,WUHU216HW,2013-05-09 02:19:00,
2013-05-08 22:24:00,55.6,49.2,30.00,ENE,68,0.0,0.0,79,0.00,,,0.47,WUHU216HW,2013-05-09 02:24:00,
2013-05-08 22:29:00,55.4,49.0,30.00,ENE,68,0.0,0.0,79,0.00,,,0.47,WUHU216HW,2013-05-09 02:29:00,
2013-05-08 22:34:00,55.4,49.0,30.00,ENE,68,0.0,0.2,79,0.00,,,0.47,WUHU216HW,2013-05-09 02:34:00,
2013-05-08 22:40:00,55.2,49.2,30.00,ENE,68,0.0,0.2,80,0.00,,,0.47,WUHU216HW,2013-05-09 02:40:00,
2013-05-08 22:45:00,55.1,49.1,30.00,ENE,68,0.0,0.0,80,0.00,,,0.47,WUHU216HW,2013-05-09 02:45:00,
2013-05-08 22:50:00,55.1,49.1,30.00,East,90,0.0,0.0,80,0.00,,,0.47,WUHU216HW,2013-05-09 02:50:00,
2013-05-08 22:55:00,54.9,48.9,30.00,East,90,0.0,0.0,80,0.00,,,0.47,WUHU216HW,2013-05-09 02:55:00,
2013-05-08 23:00:00,54.7,48.7,29.99,ENE,68,0.0,0.0,80,0.00,,,0.47,WUHU216HW,2013-05-09 03:00:00,
2013-05-08 23:05:00,54.5,48.5,29.99,East,90,0.0,0.0,80,0.00,,,0.47,WUHU216HW,2013-05-09 03:05:00,
2013-05-08 23:10:00,54.5,48.8,29.99,East,90,0.0,0.0,81,0.00,,,0.47,WUHU216HW,2013-05-09 03:10:00,
2013-05-08 23:15:00,54.3,48.6,29.99,SE,135,0.4,0.7,81,0.00,,,0.47,WUHU216HW,2013-05-09 03:15:00,
2013-05-08 23:20:00,54.3,48.6,29.99,SE,135,0.2,0.7,81,0.00,,,0.47,WUHU216HW,2013-05-09 03:20:00,
2013-05-08 23:25:00,54.2,48.5,29.99,SE,135,0.0,0.2,81,0.00,,,0.47,WUHU216HW,2013-05-09 03:25:00,
2013-05-08 23:30:00,54.0,48.3,29.99,SE,135,0.0,0.0,81,0.00,,,0.47,WUHU216HW,2013-05-09 03:30:00,
2013-05-08 23:35:00,53.8,48.1,29.99,SE,135,0.0,0.4,81,0.00,,,0.47,WUHU216HW,2013-05-09 03:35:00,
2013-05-08 23:40:00,53.8,48.1,29.98,SE,135,0.4,0.4,81,0.00,,,0.47,WUHU216HW,2013-05-09 03:40:00,
2013-05-08 23:45:00,53.4,47.4,29.99,SE,135,0.7,0.7,80,0.00,,,0.47,WUHU216HW,2013-05-09 03:45:00,
2013-05-08 23:50:00,53.3,47.6,29.99,SSE,158,0.0,0.7,81,0.00,,,0.47,WUHU216HW,2013-05-09 03:50:00,
2013-05-08 23:55:00,53.1,47.5,29.99,SSE,158,0.0,0.7,81,0.00,,,0.47,WUHU216HW,2013-05-09 03:55:00,